Location: Voorhees State Park
(40.6817°N, 74.8983°W)
Time: 10:17:35
(UTC-04:00)

Daily predictions for brighter satellites

Satellite Brightness Start Highest point End
(mag) Time Altitude Azimuth Time Altitude Azimuth Time Altitude Azimuth
FENGYUN 3A 4.1 19:53:46 10° SE 19:58:48 43° ENE 20:03:50 10° N
Cosmos 1656 4.1 19:53:51 10° S 19:59:03 41° ESE 20:04:14 10° NE
Cosmos 2084 4.1 19:57:24 10° NNW 20:01:12 38° NE 20:05:11 10° ESE
Meteor 1-28 Rocket 4.1 19:58:05 10° N 20:01:50 56° WNW 20:05:31 10° SSW
Cosmos 1626 Rocket 4.2 20:00:24 10° N 20:04:28 35° ENE 20:08:28 10° SE
Cosmos 1892 Rocket 3.9 20:02:06 10° NNW 20:06:36 73° W 20:11:03 10° S
Cosmos 1455 Rocket 3.0 20:04:23 10° S 20:08:42 83° E 20:13:05 10° N
Meteor 1-29 3.3 20:05:26 10° N 20:08:53 74° WNW 20:12:21 10° SSW
Cosmos 1975 3.3 20:06:48 10° SSE 20:10:38 39° E 20:14:29 10° NNE
Cosmos 220 Rocket 4.1 20:08:08 10° N 20:12:17 54° ENE 20:16:24 10° SSE
NOSS 3-4 (A) 4.3 20:06:58 10° NW 20:13:56 63° WSW 20:21:17 10° SSE
NOSS 3-4 (C) 4.3 20:07:05 10° NW 20:14:03 64° WSW 20:21:25 10° SSE
Cosmos 2227 Rocket 2.3 20:08:27 10° NNW 20:14:08 83° WSW 20:19:47 10° SSE
Lacrosse 5 rocket 1.4 20:10:41 10° NW 20:14:23 63° SW 20:17:56 10° SSE
Cosmos 1602 Rocket 3.9 20:10:25 10° N 20:14:43 46° ENE 20:18:58 10° SSE
Tiangong 1 1.3 20:12:16 10° WNW 20:15:22 64° N 20:18:16 11° E
CZ-2D R/B 3.4 20:15:12 10° SSE 20:18:58 56° ENE 20:22:48 10° N
Cosmos 1500 4.0 20:16:55 10° SSE 20:20:14 30° E 20:23:35 10° NNE
Cosmos 2123 Rocket 4.0 20:17:17 10° N 20:23:30 88° W 20:29:41 10° S
FengYun 1-2 T 4.4 20:17:56 10° S 20:23:35 79° WSW 20:29:13 10° NNW
Resurs 1-3 4.2 20:21:58 10° S 20:26:17 59° WSW 20:30:38 10° NNW
Cosmos 1340 4.4 20:25:19 10° NNE 20:27:44 16° ENE 20:29:01 14° E
Cosmos 2297 Rocket 2.3 20:23:21 10° NNW 20:29:02 87° WSW 20:34:42 10° SSE
Cosmos 2082 4.1 20:25:14 10° NNW 20:30:48 64° WSW 20:36:20 10° S
Helios 1B rocket 4.2 20:27:19 10° N 20:31:07 36° WNW 20:34:53 10° SW
CZ-4B DEB 3.4 20:28:33 10° S 20:31:47 60° W 20:35:03 10° NNW
SL-24 R/B - RUBIN 2 4.5 20:29:55 10° SSW 20:35:46 84° WNW 20:42:19 10° NNE
Meteor 1-12 Rocket 4.3 20:30:01 10° S 20:35:46 86° E 20:41:40 10° N
Iridium 4 Rocket 3.2 20:36:02 10° N 20:40:58 65° E 20:45:26 10° SSE
Cosmos 1515 3.6 20:40:56 10° N 20:44:47 75° E 20:48:36 10° SSE
Cosmos 1606 Rocket 4.5 20:45:32 20° SE 20:47:34 28° E 20:51:22 10° NNE
Envisat 3.7 20:46:26 19° ESE 20:49:24 36° ENE 20:54:01 10° N
Cosmos 1939 Rocket 3.7 20:48:13 23° ESE 20:50:07 35° ENE 20:53:56 10° N
Lacrosse 5 1.8 20:45:28 10° NW 20:50:33 77° NE 20:53:46 23° SE
Cosmos 1937 Rocket 3.6 20:45:54 10° NNW 20:51:09 61° ENE 20:54:56 19° SE
Resurs 01 Rocket 4.0 20:49:41 10° SSW 20:53:13 23° W 20:56:48 10° NW
Cosmos 2298 Rocket 4.1 20:49:13 10° NNW 20:54:33 82° WSW 20:59:38 11° SSE
Cosmos 990 Rocket 4.2 20:55:12 10° N 21:00:22 54° ENE 21:03:09 26° SE
SPOT 5 3.9 20:58:57 24° E 21:00:26 28° ENE 21:04:29 10° N
Cosmos 972 Rocket 4.5 20:55:19 10° NNW 21:01:24 76° ENE 21:06:57 16° SSE
Cosmos 1743 2.8 20:59:22 17° SSE 21:02:14 55° E 21:06:05 10° NNE
Cosmos 1697 Rocket 2.8 20:57:22 10° SSW 21:03:01 80° WNW 21:08:43 10° NNE
SJ-11-01 4.2 21:03:16 20° SSE 21:06:27 75° ENE 21:11:08 10° N
Cosmos 1066 Rocket 4.3 21:02:02 10° N 21:07:45 86° WSW 21:13:22 11° S
Cosmos 1726 Rocket 3.9 21:09:03 35° SE 21:10:10 41° E 21:14:19 10° NNE
ERS-1 Rocket 2.9 21:08:34 22° SSE 21:11:49 77° ENE 21:16:51 10° N
Cosmos 1802 Rocket 4.0 21:05:40 10° S 21:11:58 66° E 21:18:21 10° NNE
SL-16 R/B 3.1 21:16:08 27° E 21:16:08 27° E 21:20:02 10° NE
H-2A R/B 4.1 21:15:51 11° ENE 21:15:51 11° ENE 21:17:18 10° NE
ARGOS 4.3 21:16:12 23° ENE 21:17:03 24° ENE 21:21:17 10° NNE
RESURS DK-1 2.5 21:12:56 10° NNW 21:17:05 69° WSW 21:18:51 32° S
Cosmos 2016 Rocket 3.9 21:14:02 13° S 21:19:31 62° E 21:25:39 10° NNE
CZ-4 DEB 3.0 21:19:01 45° SSW 21:19:46 65° W 21:22:54 10° NNW
Cosmos 1763 Rocket 3.3 21:19:39 10° SSW 21:24:45 80° ESE 21:29:50 10° NNE
Cosmos 1825 Rocket 3.5 21:20:48 10° N 21:25:15 90° SSW 21:26:56 37° S
USA 186 4.3 21:23:30 10° SW 21:25:38 18° W 21:27:40 10° NW
ALOS 4.4 21:22:09 10° SSW 21:25:57 25° W 21:29:47 10° NW
Cosmos 1980 Rocket 2.2 21:21:20 10° SSW 21:27:00 83° WNW 21:32:44 10° NNE
MetOp-B 4.5 21:25:59 39° ESE 21:27:14 46° ENE 21:32:20 10° N
OAO 2 Rocket 3.9 21:22:43 10° WSW 21:27:24 40° S 21:28:13 37° SSE
Cosmos 2173 Rocket 4.1 21:25:11 10° S 21:31:32 78° W 21:37:54 10° N
SPOT 1/Viking Rocket 4.2 21:34:23 35° ENE 21:34:45 36° ENE 21:39:28 10° N
Cosmos 2098 Rocket 3.9 21:31:59 24° SSE 21:36:09 64° E 21:41:45 10° NNE
Cosmos 1953 Rocket 3.5 21:32:23 10° N 21:36:53 88° E 21:37:48 56° S
Cosmos 1842 3.6 21:33:35 10° N 21:36:55 52° NE 21:36:55 52° NE
H-2A R/B 1.8 21:37:53 73° ESE 21:38:07 76° ENE 21:42:17 10° N
Cosmos 1125 Rocket 3.7 21:34:16 10° N 21:39:18 48° ENE 21:39:49 47° E
Nimbus 7 Rocket 4.3 21:35:30 10° NNE 21:41:35 75° ESE 21:45:43 22° S
Cosmos 2228 3.9 21:43:11 34° NE 21:43:11 34° NE 21:45:57 10° NNE
Cosmos 967 Rocket 4.4 21:36:25 10° NNW 21:42:47 81° WSW 21:45:05 42° SSE
SWAS 4.3 21:44:01 79° E 21:44:01 79° E 21:48:13 10° NNE
Cosmos 1666 3.2 21:45:23 51° NNE 21:45:23 51° NNE 21:48:19 10° N
Cosmos 1864 Rocket 4.3 21:46:03 43° SSE 21:48:03 69° E 21:54:09 10° NNE
Cosmos 841 Rocket 3.7 21:43:54 10° SSW 21:49:07 72° WNW 21:54:21 10° NNE
CZ-3C R/B 4.3 21:27:45 10° W 21:50:27 23° SW 21:55:35 16° S
Tiangong 1 3.3 21:48:52 10° W 21:50:13 22° W 21:50:13 22° W
YAOGAN 6 3.6 21:53:36 42° N 21:53:36 42° N 21:56:12 10° N
Cosmos 2263 Rocket 3.0 21:47:42 10° N 21:52:44 33° ENE 21:52:51 33° ENE
Cosmos 1758 Rocket 3.7 21:50:57 10° NNW 21:55:17 67° W 21:55:33 65° WSW
Cosmos 540 Rocket 4.4 21:59:24 34° NE 21:59:24 34° NE 22:02:28 10° NNE
ASTEX 1 3.4 21:53:04 10° N 21:58:06 83° W 21:58:58 61° SSW
Tsikada Rocket 3.9 21:54:28 10° N 22:00:57 82° E 22:02:25 56° SSE
Cosmos 2322 Rocket 2.0 22:00:48 72° SE 22:01:06 74° ESE 22:06:43 10° NNE
Cosmos 1340 4.2 22:00:10 10° NNW 22:03:33 31° W 22:03:55 30° WSW
deb Chang Zheng 4 4.2 22:00:09 10° N 22:04:31 56° WNW 22:05:36 43° WSW
Meteor 2-17 Rocket 4.3 22:08:23 66° E 22:08:23 66° E 22:14:20 10° NNE
Meteor 2-5 Rocket 4.4 22:02:53 10° N 22:07:52 41° ENE 22:07:52 41° ENE
Meteor 1-15 Rocket 4.3 22:08:01 48° SSW 22:09:46 82° W 22:15:40 10° N
MetOp-A 4.3 22:12:56 60° SW 22:13:36 66° WSW 22:18:57 10° NNW
Meteor 2-9 Rocket 4.4 22:12:18 41° SW 22:14:08 64° W 22:19:30 10° N
Cosmos 372 Rocket 4.3 22:09:51 10° NNW 22:14:12 55° NNE 22:14:12 55° NNE
Cosmos 1816 Rocket 4.4 22:11:22 10° N 22:17:46 87° E 22:18:26 74° SSE
Cosmos 1725 Rocket 4.2 22:18:11 37° SSW 22:20:42 65° W 22:26:55 10° N
Cosmos 2058 Rocket 4.3 22:22:24 37° W 22:23:00 39° WNW 22:27:16 10° N
Lacrosse 5 4.0 22:29:47 10° W 22:32:56 17° WSW 22:32:58 17° WSW
SPOT 5 4.2 22:38:12 32° WSW 22:38:23 32° W 22:42:42 10° NW
CZ-4B R/B 4.4 22:36:01 10° N 22:39:05 40° N 22:39:05 40° N
Cosmos 2233 Rocket 4.1 22:43:02 70° W 22:43:12 71° W 22:49:27 10° N
H-2A R/B 3.2 22:56:29 38° NNW 22:56:29 38° NNW 22:59:30 10° NNW
Terra 3.4 22:59:15 31° N 22:59:15 31° N 23:01:43 10° N
ARGOS 4.1 22:57:44 42° WNW 22:57:44 42° WNW 23:02:09 10° NNW
SL-16 R/B 3.3 22:57:52 36° W 22:59:09 41° WNW 23:04:32 10° N
Cosmos 1844 Rocket 4.4 22:59:22 10° N 23:02:32 25° NNE 23:02:32 25° NNE
Cosmos 2360 Rocket 3.7 23:14:23 29° NNE 23:14:23 29° NNE 23:17:03 10° NNE
BREEZE-M DEB (TANK) 4.2 22:51:05 10° WNW 23:14:34 85° SW 23:14:38 84° SSW
USA 215 3.5 23:21:34 63° NNW 23:21:34 63° NNW 23:27:05 10° NW
BREEZE-M DEB (TANK) 4.5 23:21:59 10° WNW 23:31:51 47° W 23:31:51 47° W
Cosmos 2263 Rocket 3.9 23:31:37 10° NW 23:34:33 26° WNW 23:34:33 26° WNW
